User: anonymous
Location: Hamburg
(53.5500°N, 10.0000°E)
Time: 17:51:56
(UTC+02:00)
Language:

Courier 1B - Orbit

View from above orbital plane
View from above orbital plane
View from above satellite
View from above satellite

Ground track
Ground track

The orbit data is extracted from the following two-line orbital elements,

1 00058U 60013A   14204.12550004  .00000082  00000-0 -96340-5 0  7212
2 00058 028.3269 233.9742 0164983 217.2100 141.6910 13.46278433648347
Epoch (UTC): 23 July 2014 03:00:43
Eccentricity: 0.0164983
inclination: 28.3269°
perigee height: 963 km
apogee height: 1209 km
right ascension of ascending node: 233.9742°
argument of perigee: 217.2100°
revolutions per day: 13.46278433
mean anomaly at epoch: 141.6910°
orbit number at epoch: 64834

The dashed part of the orbit path shows where the satellite is in the earth's shadow,  

DLR